LRTM Weather Reports


time (UTC)temp
C
wind
direction
speed
KPH
gust
KPH
rain 1hr
cm
rain 24hr
cm
rain mn
cm
humidity
%
barometer
mb
20260506114826 27 110 9.7 0.0 0.00 0.00 0.00 26 1012.0
20260506113326 27 110 9.7 0.0 0.00 0.00 0.00 26 1012.0
20260506111826 26 120 9.7 0.0 0.00 0.00 0.00 30 1013.0
20260506110326 26 120 9.7 0.0 0.00 0.00 0.00 30 1013.0
20260506104826 26 180 9.7 0.0 0.00 0.00 0.00 28 1013.0
20260506103326 26 180 9.7 0.0 0.00 0.00 0.00 28 1013.0
20260506101826 25 170 8.0 0.0 0.00 0.00 0.00 30 1013.0
20260506100326 25 170 8.0 0.0 0.00 0.00 0.00 30 1013.0
20260506094826 25 4.8 0.0 0.00 0.00 0.00 34 1014.0
20260506093326 25 4.8 0.0 0.00 0.00 0.00 34 1014.0
20260506091826 22 90 8.0 0.0 0.00 0.00 0.00 38 1014.0
20260506090326 22 90 8.0 0.0 0.00 0.00 0.00 38 1014.0
20260506084826 22 8.0 0.0 0.00 0.00 0.00 41 1014.0
20260506083326 22 8.0 0.0 0.00 0.00 0.00 41 1014.0
20260506081823 21 90 11.3 0.0 0.00 0.00 0.00 46 1014.0
20260506080326 21 90 11.3 0.0 0.00 0.00 0.00 46 1014.0
20260506073326 18 60 8.0 0.0 0.00 0.00 0.00 52 1014.0
20260506071826 17 70 9.7 0.0 0.00 0.00 0.00 59 1014.0
20260506070326 17 70 9.7 0.0 0.00 0.00 0.00 59 1014.0
20260506061826 13 60 9.7 0.0 0.00 0.00 0.00 63 1014.0
20260506060328 13 60 9.7 0.0 0.00 0.00 0.00 63 1014.0
20260506050340 10 90 9.7 0.0 0.00 0.00 0.00 76 1014.0
20260506044842 8 100 9.7 0.0 0.00 0.00 0.00 76 1014.0
20260506043330 8 100 9.7 0.0 0.00 0.00 0.00 76 1014.0
20260506041827 7 90 9.7 0.0 0.00 0.00 0.00 82 1014.0
20260506040326 7 90 9.7 0.0 0.00 0.00 0.00 82 1014.0
20260506034826 6 110 9.7 0.0 0.00 0.00 0.00 87 1014.0
20260506033326 6 110 9.7 0.0 0.00 0.00 0.00 87 1014.0
20260506031826 6 90 9.7 0.0 0.00 0.00 0.00 87 1014.0
20260506030326 6 90 9.7 0.0 0.00 0.00 0.00 87 1014.0
20260506024826 6 100 8.0 0.0 0.00 0.00 0.00 87 1013.0
20260506023326 6 100 8.0 0.0 0.00 0.00 0.00 87 1013.0
20260506021826 6 100 9.7 0.0 0.00 0.00 0.00 87 1013.0
20260506020326 6 100 9.7 0.0 0.00 0.00 0.00 87 1013.0
20260506014826 6 100 11.3 0.0 0.00 0.00 0.00 87 1013.0
20260506013326 6 100 11.3 0.0 0.00 0.00 0.00 87 1013.0
20260506011827 7 90 11.3 0.0 0.00 0.00 0.00 81 1013.0
20260506010326 7 90 11.3 0.0 0.00 0.00 0.00 81 1013.0
20260506004826 7 90 8.0 0.0 0.00 0.00 0.00 82 1013.0
20260506003445 7 90 8.0 0.0 0.00 0.00 0.00 82 1013.0
20260506001826 7 90 9.7 0.0 0.00 0.00 0.00 82 1013.0
20260506000327 7 90 9.7 0.0 0.00 0.00 0.00 82 1013.0
20260505234826 8 70 8.0 0.0 0.00 0.00 0.00 76 1013.0
20260505233326 8 70 8.0 0.0 0.00 0.00 0.00 76 1013.0
20260505231826 8 100 8.0 0.0 0.00 0.00 0.00 76 1013.0
20260505230326 8 100 8.0 0.0 0.00 0.00 0.00 76 1013.0
20260505224826 7 100 9.7 0.0 0.00 0.00 0.00 82 1013.0
20260505223326 7 100 9.7 0.0 0.00 0.00 0.00 82 1013.0
20260505221823 10 100 9.7 0.0 0.00 0.00 0.00 71 1013.0
20260505220326 10 100 9.7 0.0 0.00 0.00 0.00 71 1013.0
20260505214827 10 90 9.7 0.0 0.00 0.00 0.00 71 1013.0
20260505213326 10 90 9.7 0.0 0.00 0.00 0.00 71 1013.0
20260505211826 8 100 9.7 0.0 0.00 0.00 0.00 71 1013.0
20260505210326 8 100 9.7 0.0 0.00 0.00 0.00 71 1013.0
20260505204828 10 70 9.7 0.0 0.00 0.00 0.00 67 1013.0
20260505203326 10 70 9.7 0.0 0.00 0.00 0.00 67 1013.0
20260505201857 12 3.2 0.0 0.00 0.00 0.00 63 1012.0
20260505200327 12 3.2 0.0 0.00 0.00 0.00 63 1012.0
20260505194826 12 0 0.0 0.0 0.00 0.00 0.00 63 1012.0
20260505193326 12 0 0.0 0.0 0.00 0.00 0.00 63 1012.0
20260505191826 13 1.6 0.0 0.00 0.00 0.00 59 1012.0
20260505190326 13 1.6 0.0 0.00 0.00 0.00 59 1012.0
20260505184827 15 350 1.6 0.0 0.00 0.00 0.00 55 1012.0
20260505183327 15 350 1.6 0.0 0.00 0.00 0.00 55 1012.0
20260505181827 17 3.2 0.0 0.00 0.00 0.00 49 1012.0
20260505180326 17 3.2 0.0 0.00 0.00 0.00 49 1012.0
20260505174824 20 110 8.0 0.0 0.00 0.00 0.00 40 1011.0
20260505173326 20 110 8.0 0.0 0.00 0.00 0.00 40 1011.0
20260505171826 22 80 4.8 0.0 0.00 0.00 0.00 38 1011.0
20260505170326 22 80 4.8 0.0 0.00 0.00 0.00 38 1011.0
20260505164826 26 1.6 0.0 0.00 0.00 0.00 20 1012.0
20260505163326 26 1.6 0.0 0.00 0.00 0.00 20 1012.0
20260505161827 27 3.2 0.0 0.00 0.00 0.00 18 1012.0
20260505160327 27 3.2 0.0 0.00 0.00 0.00 18 1012.0
20260505153326 27 3.2 0.0 0.00 0.00 0.00 17 1012.0
20260505151834 26 4.8 0.0 0.00 0.00 0.00 20 1012.0
20260505150327 26 4.8 0.0 0.00 0.00 0.00 20 1012.0
20260505140326 27 210 8.0 0.0 0.00 0.00 0.00 23 1013.0
20260505124826 27 230 9.7 0.0 0.00 0.00 0.00 23 1014.0
20260505123326 27 230 9.7 0.0 0.00 0.00 0.00 23 1014.0
20260505121826 26 230 9.7 0.0 0.00 0.00 0.00 21 1014.0
20260505120333 25 260 9.7 0.0 0.00 0.00 0.00 26 1014.0